TimeEST,TemperatureF,Dew PointF,Humidity,Sea Level PressureIn,VisibilityMPH,Wind Direction,Wind SpeedMPH,Gust SpeedMPH,PrecipitationIn,Events,Conditions,WindDirDegrees,DateUTC
12:51 AM,26.1,25.0,96,30.11,5.0,Calm,Calm,-,N/A,,Clear,0,2012-11-23 05:51:00
1:24 AM,26.6,23.0,86,30.10,2.5,Calm,Calm,-,N/A,,Partly Cloudy,0,2012-11-23 06:24:00
1:26 AM,26.6,23.0,86,30.10,1.0,Calm,Calm,-,N/A,,Mist,0,2012-11-23 06:26:00
1:33 AM,24.8,24.8,100,30.10,0.8,Calm,Calm,-,N/A,,Mostly Cloudy,0,2012-11-23 06:33:00
1:36 AM,26.6,24.8,93,30.09,1.5,Calm,Calm,-,N/A,,Mostly Cloudy,0,2012-11-23 06:36:00
1:39 AM,26.6,24.8,93,30.09,4.0,Calm,Calm,-,N/A,,Mostly Cloudy,0,2012-11-23 06:39:00
1:51 AM,27.0,25.0,92,30.10,7.0,Calm,Calm,-,N/A,,Overcast,0,2012-11-23 06:51:00
2:11 AM,26.6,26.6,100,30.09,7.0,SE,3.5,-,N/A,,Overcast,140,2012-11-23 07:11:00
2:43 AM,28.4,28.4,100,30.08,1.2,Calm,Calm,-,N/A,,Overcast,0,2012-11-23 07:43:00
2:49 AM,28.4,28.4,100,30.08,0.2,Calm,Calm,-,N/A,Fog,Light Freezing Fog,0,2012-11-23 07:49:00
2:51 AM,28.9,28.0,96,30.09,0.2,Calm,Calm,-,N/A,Fog,Light Freezing Fog,0,2012-11-23 07:51:00
3:51 AM,28.9,28.9,100,30.07,0.2,Calm,Calm,-,N/A,Fog,Light Freezing Fog,0,2012-11-23 08:51:00
4:51 AM,28.9,28.9,100,30.06,0.2,Calm,Calm,-,N/A,Fog,Light Freezing Fog,0,2012-11-23 09:51:00
5:51 AM,28.9,28.9,100,30.05,0.2,Calm,Calm,-,N/A,Fog,Light Freezing Fog,0,2012-11-23 10:51:00
6:51 AM,28.0,28.0,100,30.03,0.2,Calm,Calm,-,N/A,Fog,Light Freezing Fog,0,2012-11-23 11:51:00
7:51 AM,28.0,28.0,100,30.02,0.2,Calm,Calm,-,N/A,Fog,Light Freezing Fog,0,2012-11-23 12:51:00
8:51 AM,28.9,28.9,100,30.00,0.2,Calm,Calm,-,N/A,Fog,Light Freezing Fog,0,2012-11-23 13:51:00
9:51 AM,32.0,32.0,100,29.98,0.2,Calm,Calm,-,N/A,Fog,Fog,0,2012-11-23 14:51:00
10:43 AM,33.8,33.8,100,29.94,0.5,WNW,3.5,-,N/A,Fog,Fog,290,2012-11-23 15:43:00
10:51 AM,33.1,33.1,100,29.95,0.2,NW,3.5,-,N/A,Fog,Fog,320,2012-11-23 15:51:00
11:06 AM,33.8,33.8,100,29.91,0.8,Calm,Calm,-,N/A,,Overcast,0,2012-11-23 16:06:00
11:20 AM,35.6,35.6,100,29.90,1.5,Calm,Calm,-,N/A,,Mostly Cloudy,0,2012-11-23 16:20:00
11:24 AM,37.4,35.6,93,29.90,3.0,Calm,Calm,-,N/A,,Mostly Cloudy,0,2012-11-23 16:24:00
11:35 AM,39.2,35.6,87,29.88,6.0,Calm,Calm,-,N/A,,Scattered Clouds,0,2012-11-23 16:35:00
11:51 AM,39.9,37.0,89,29.88,8.0,SE,3.5,-,N/A,,Clear,140,2012-11-23 16:51:00
12:51 PM,54.0,37.0,53,29.84,10.0,SSE,8.1,-,N/A,,Clear,160,2012-11-23 17:51:00
1:51 PM,55.9,37.0,49,29.80,10.0,SSE,11.5,-,N/A,,Clear,160,2012-11-23 18:51:00
2:51 PM,57.0,36.0,45,29.77,10.0,SSE,9.2,-,N/A,,Clear,150,2012-11-23 19:51:00
3:51 PM,53.6,37.4,54,29.74,10.0,SSE,9.2,-,N/A,,Clear,150,2012-11-23 20:51:00
4:51 PM,51.1,37.0,59,29.74,10.0,SE,6.9,-,N/A,,Clear,140,2012-11-23 21:51:00
5:51 PM,48.9,37.9,66,29.74,10.0,South,6.9,-,N/A,,Clear,170,2012-11-23 22:51:00
6:51 PM,46.0,37.9,73,29.73,10.0,SSE,8.1,-,N/A,,Clear,160,2012-11-23 23:51:00
7:51 PM,46.0,37.9,73,29.71,10.0,SSE,5.8,-,N/A,,Clear,160,2012-11-24 00:51:00
8:51 PM,46.0,39.0,76,29.70,10.0,SSE,5.8,-,N/A,,Overcast,150,2012-11-24 01:51:00
9:51 PM,46.0,37.9,73,29.68,10.0,SSE,3.5,-,N/A,,Overcast,150,2012-11-24 02:51:00
10:51 PM,45.0,39.0,80,29.65,10.0,SE,4.6,-,N/A,,Overcast,140,2012-11-24 03:51:00
11:51 PM,45.0,39.9,82,29.62,10.0,SSE,5.8,-,N/A,,Overcast,150,2012-11-24 04:51:00